Regional Weather Roundup
Issued by NWS

Home | Current Version | Previous Version | Graphics & Text | Print | Product List | Glossary On
Versions: 1 2 3 4 5 6 7 8 9 10 11 12 13 14 15 16 17 18 19 20 21 22 23 24 25 26 27 28 29 30 31 32 33 34 35 36 37 38 39 40 41 42 43 44 45 46 47 48 49 50
000
ASUS43 KIND 292359
RWRIN

WEATHER ROUNDUP FOR INDIANA
NATIONAL WEATHER SERVICE INDIANAPOLIS IN
800 PM EDT MON SEP 29 2014

NOTE: "FAIR" INDICATES FEW OR NO CLOUDS BELOW 12,000 FEET WITH NO
SIGNIFICANT WEATHER AND/OR OBSTRUCTIONS TO VISIBILITY.

* - STATION DOES NOT REPORT WEATHER SUCH AS PRECIPITATION OR FOG.

+ - STATION NOT QUALITY CONTROLLED BY THE NATIONAL WEATHER SERVICE.
    USE DATA WITH CAUTION...ESPECIALLY DEWPOINT AND RELATIVE
    HUMIDITY OBSERVATIONS.

INZ001>003-010>013-019-020-300100-
NORTHWEST INDIANA

CITY           SKY/WX    TMP DP  RH WIND       PRES   REMARKS
GARY /AIRPORT/ PTCLDY    72  59  64 VRB5      29.92S
VALPARAISO     NOT AVBL

$$

LMZ046-743>745-300100-
SOUTHERN LAKE MICHIGAN

STATION/POSITION TIME  TEMP WIND        PRES
                       AIR  DIR/SP/G
                 (UTC) (F)  (DEG/KT/KT) (MB)
MICHIGAN CITY    2300   76  190/  3/  3   N/A

$$

INZ004-005-014>016-021>024-300100-
NORTH CENTRAL INDIANA

CITY           SKY/WX    TMP DP  RH WIND       PRES   REMARKS
ELKHART        CLEAR     66  57  72 CALM      29.93F
SOUTH BEND     NOT AVBL
WARSAW +       CLEAR     64  59  82 CALM      29.94S

$$

INZ006>009-017-018-025>027-300100-
NORTHEAST INDIANA

CITY           SKY/WX    TMP DP  RH WIND       PRES   REMARKS
ANGOLA *+      CLEAR     66  61  82 CALM      29.93F
FORT WAYNE     CLEAR     66  56  70 CALM      29.94S
6HR MIN TEMP:  66; 6HR MAX TEMP:  80;


$$

INZ028-029-035-036-043>045-051>053-300100-
WEST CENTRAL INDIANA

CITY           SKY/WX    TMP DP  RH WIND       PRES   REMARKS
GREENCASTLE +  CLEAR     68  59  73 CALM      29.95S
LAFAYETTE      CLEAR     69  60  73 CALM      29.93S
6HR MIN TEMP:  68; 6HR MAX TEMP:  81;

TERRE HAUTE    CLEAR     67  57  70 CALM      29.94F
6HR MIN TEMP:  67; 6HR MAX TEMP:  83;


$$

INZ030>032-037>040-046>048-054>057-064-065-300100-
CENTRAL INDIANA

CITY           SKY/WX    TMP DP  RH WIND       PRES   REMARKS
FRANKFORT +    CLEAR     66  57  73 CALM      29.96S
INDIANAPOLIS   CLEAR     73  50  44 NW5       29.94S
6HR MIN TEMP:  73; 6HR MAX TEMP:  82;

-EAGLE CREEK   CLEAR     70  58  65 NW3       29.94S
6HR MIN TEMP:  70; 6HR MAX TEMP:  82;

KOKOMO *+      CLEAR     68  55  64 CALM      29.94F
MT COMFORT *+  CLEAR     66  41  39 CALM      29.95S
SHELBYVILLE    CLEAR     66  52  60 CALM      29.93F
6HR MIN TEMP:  66; 6HR MAX TEMP:  84;


$$

INZ033-034-041-042-049-050-058-059-300100-
EAST CENTRAL INDIANA

CITY           SKY/WX    TMP DP  RH WIND       PRES   REMARKS
MUNCIE         CLEAR     67  53  61 CALM      29.95S
6HR MIN TEMP:  67; 6HR MAX TEMP:  82;


$$

INZ060-061-067>069-081>083-085>088-300100-
SOUTHWEST INDIANA

CITY           SKY/WX    TMP DP  RH WIND       PRES   REMARKS
EVANSVILLE     CLEAR     75  56  51 N3        29.94S
6HR MIN TEMP:  75; 6HR MAX TEMP:  87;


$$

INZ062-063-066-070>080-084-089>092-300100-
SOUTH CENTRAL AND SOUTHEAST INDIANA

CITY           SKY/WX    TMP DP  RH WIND       PRES   REMARKS
BLOOMINGTON    CLEAR     65  58  78 W3        29.95S
6HR MIN TEMP:  64; 6HR MAX TEMP:  82;


$$



USA.gov is the U.S. government's official web portal to all federal, state and local government web resources and services.